• In Hungary
  • List of Countries
  • For 7 days
  • Water Temperature
  • Satellite Maps
  • Weather Map
  • News
  • Weather Widgets
  • user-avatar
    Login

    Hourly Weather Crete

    Today, 26 September, Wednesday

    Time Temperature Precipitation Wind Pressure Humidity
    00:00 +19°C° 0 mm 9 mps 711 mmHg 67%
    01:00 +19°C° 0 mm 9 mps 710 mmHg 66%
    02:00 +19°C° 0 mm 9 mps 710 mmHg 66%
    03:00 +18°C° 0 mm 10 mps 710 mmHg 66%
    04:00 +18°C° 0 mm 10 mps 710 mmHg 66%
    05:00 +17°C° 0 mm 10 mps 710 mmHg 66%
    06:00 +18°C° 0 mm 10 mps 710 mmHg 63%
    07:00 +18°C° 0 mm 11 mps 710 mmHg 60%
    08:00 +18°C° 0 mm 11 mps 710 mmHg 57%
    09:00 +19°C° 0 mm 11 mps 711 mmHg 54%
    10:00 +21°C° 0 mm 11 mps 711 mmHg 50%
    11:00 +22°C° 0 mm 11 mps 711 mmHg 46%
    12:00 +22°C° 0 mm 11 mps 711 mmHg 46%
    13:00 +21°C° 0 mm 11 mps 711 mmHg 46%
    14:00 +21°C° 0 mm 11 mps 711 mmHg 46%
    15:00 +21°C° 0.1 mm 11 mps 710 mmHg 48%
    16:00 +19°C° 0.1 mm 11 mps 710 mmHg 51%
    17:00 +18°C° 0.1 mm 11 mps 710 mmHg 53%
    18:00 +18°C° 0.1 mm 11 mps 710 mmHg 56%
    19:00 +17°C° 0.1 mm 11 mps 710 mmHg 59%
    20:00 +16°C° 0.1 mm 10 mps 709 mmHg 62%
    21:00 +16°C° 0.1 mm 10 mps 710 mmHg 62%
    22:00 +16°C° 0.1 mm 10 mps 710 mmHg 63%
    23:00 +16°C° 0.1 mm 9 mps 710 mmHg 63%

    Tomorrow, 27 September, Thursday

    Time Temperature Precipitation Wind Pressure Humidity
    00:00 +16°C° 0.1 mm 9 mps 709 mmHg 64%
    01:00 +16°C° 0.1 mm 9 mps 709 mmHg 65%
    02:00 +16°C° 0.1 mm 9 mps 709 mmHg 66%
    03:00 +16°C° 0.1 mm 8 mps 708 mmHg 66%
    04:00 +16°C° 0.1 mm 8 mps 708 mmHg 66%
    05:00 +16°C° 0.1 mm 8 mps 708 mmHg 67%
    06:00 +16°C° 0.1 mm 7 mps 708 mmHg 64%
    07:00 +17°C° 0.1 mm 7 mps 708 mmHg 62%
    08:00 +17°C° 0.1 mm 7 mps 708 mmHg 59%
    09:00 +19°C° 0 mm 6 mps 708 mmHg 55%
    10:00 +21°C° 0 mm 5 mps 708 mmHg 51%
    11:00 +22°C° 0 mm 4 mps 709 mmHg 47%
    12:00 +22°C° 0 mm 4 mps 709 mmHg 46%
    13:00 +22°C° 0 mm 3 mps 708 mmHg 44%
    14:00 +22°C° 0 mm 3 mps 708 mmHg 43%
    15:00 +22°C° 0 mm 3 mps 708 mmHg 46%
    16:00 +22°C° 0 mm 3 mps 708 mmHg 49%
    17:00 +21°C° 0 mm 3 mps 708 mmHg 51%
    18:00 +21°C° 0 mm 3 mps 708 mmHg 54%
    19:00 +20°C° 0 mm 3 mps 708 mmHg 56%
    20:00 +20°C° 0 mm 3 mps 708 mmHg 58%
    21:00 +20°C° 0 mm 3 mps 708 mmHg 59%
    22:00 +20°C° 0 mm 3 mps 708 mmHg 61%
    23:00 +20°C° 0 mm 3 mps 708 mmHg 62%

    Day after tomorrow, 28 September, Friday

    Time Temperature Precipitation Wind Pressure Humidity
    00:00 +19°C° 0.6 mm 4 mps 708 mmHg 66%
    01:00 +19°C° 0.6 mm 4 mps 707 mmHg 70%
    02:00 +19°C° 0.6 mm 4 mps 707 mmHg 74%
    03:00 +19°C° 0.9 mm 5 mps 707 mmHg 76%
    04:00 +19°C° 0.9 mm 5 mps 707 mmHg 78%
    05:00 +17°C° 0.9 mm 6 mps 706 mmHg 81%
    06:00 +19°C° 1.1 mm 6 mps 706 mmHg 80%
    07:00 +18°C° 1.1 mm 7 mps 706 mmHg 79%
    08:00 +18°C° 1.1 mm 7 mps 706 mmHg 78%
    09:00 +18°C° 1 mm 7 mps 707 mmHg 79%
    10:00 +20°C° 1 mm 7 mps 707 mmHg 80%
    11:00 +20°C° 1 mm 7 mps 707 mmHg 82%
    12:00 +20°C° 0.3 mm 7 mps 707 mmHg 79%
    13:00 +21°C° 0.3 mm 7 mps 706 mmHg 76%
    14:00 +22°C° 0.3 mm 6 mps 706 mmHg 74%
    15:00 +21°C° 0 mm 6 mps 706 mmHg 69%
    16:00 +21°C° 0 mm 6 mps 705 mmHg 65%
    17:00 +20°C° 0 mm 5 mps 705 mmHg 60%
    18:00 +20°C° 0 mm 5 mps 705 mmHg 62%
    19:00 +20°C° 0 mm 5 mps 705 mmHg 64%
    20:00 +20°C° 0 mm 5 mps 705 mmHg 66%
    21:00 +20°C° 0.1 mm 6 mps 705 mmHg 67%
    22:00 +20°C° 0.1 mm 6 mps 705 mmHg 67%
    23:00 +20°C° 0.1 mm 7 mps 704 mmHg 68%

    29 September, Saturday

    Time Temperature Precipitation Wind Pressure Humidity
    00:00 +20°C° 0.5 mm 7 mps 704 mmHg 70%
    01:00 +20°C° 0.5 mm 8 mps 703 mmHg 73%
    02:00 +19°C° 0.5 mm 9 mps 703 mmHg 75%
    03:00 +19°C° 1 mm 10 mps 702 mmHg 76%
    04:00 +19°C° 1 mm 11 mps 702 mmHg 77%
    05:00 +19°C° 1 mm 12 mps 702 mmHg 78%
    06:00 +19°C° 0.6 mm 11 mps 702 mmHg 74%
    07:00 +19°C° 0.6 mm 10 mps 702 mmHg 71%
    08:00 +19°C° 0.6 mm 9 mps 702 mmHg 68%
    09:00 +21°C° 0.3 mm 9 mps 703 mmHg 67%
    10:00 +21°C° 0.3 mm 10 mps 703 mmHg 66%
    11:00 +22°C° 0.3 mm 10 mps 704 mmHg 64%
    12:00 +21°C° 0.1 mm 10 mps 704 mmHg 65%
    13:00 +21°C° 0.1 mm 10 mps 704 mmHg 66%
    14:00 +21°C° 0.1 mm 9 mps 704 mmHg 67%
    15:00 +21°C° 0.1 mm 9 mps 704 mmHg 66%
    16:00 +21°C° 0.1 mm 8 mps 704 mmHg 66%
    17:00 +21°C° 0.1 mm 8 mps 704 mmHg 66%
    18:00 +21°C° 0.1 mm 7 mps 705 mmHg 68%
    19:00 +20°C° 0.1 mm 7 mps 705 mmHg 71%
    20:00 +20°C° 0.1 mm 7 mps 706 mmHg 73%
    21:00 +20°C° 0.1 mm 7 mps 706 mmHg 74%
    22:00 +20°C° 0.1 mm 7 mps 706 mmHg 74%
    23:00 +20°C° 0.1 mm 6 mps 707 mmHg 75%

    30 September, Sunday

    Time Temperature Precipitation Wind Pressure Humidity
    00:00 +20°C° 0 mm 6 mps 707 mmHg 76%
    01:00 +19°C° 0 mm 6 mps 707 mmHg 76%
    02:00 +19°C° 0 mm 6 mps 707 mmHg 77%
    03:00 +19°C° 0 mm 5 mps 707 mmHg 77%
    04:00 +19°C° 0 mm 5 mps 707 mmHg 78%
    05:00 +19°C° 0 mm 4 mps 707 mmHg 78%
    06:00 +20°C° 0 mm 4 mps 708 mmHg 75%
    07:00 +20°C° 0 mm 4 mps 708 mmHg 73%
    08:00 +21°C° 0 mm 3 mps 708 mmHg 71%
    09:00 +21°C° 0 mm 3 mps 708 mmHg 67%
    10:00 +22°C° 0 mm 3 mps 709 mmHg 64%
    11:00 +24°C° 0 mm 3 mps 709 mmHg 61%
    12:00 +23°C° 0.1 mm 4 mps 709 mmHg 60%
    13:00 +23°C° 0.1 mm 4 mps 709 mmHg 59%
    14:00 +25°C° 0.1 mm 4 mps 709 mmHg 57%
    15:00 +23°C° 0.1 mm 4 mps 709 mmHg 59%
    16:00 +23°C° 0.1 mm 4 mps 709 mmHg 60%
    17:00 +23°C° 0.1 mm 4 mps 709 mmHg 62%
    18:00 +22°C° 0.1 mm 3 mps 709 mmHg 65%
    19:00 +22°C° 0.1 mm 3 mps 709 mmHg 68%
    20:00 +21°C° 0.1 mm 2 mps 710 mmHg 71%
    21:00 +21°C° 0 mm 2 mps 710 mmHg 72%
    22:00 +21°C° 0 mm 2 mps 710 mmHg 73%
    23:00 +22°C° 0 mm 1 mps 710 mmHg 74%

    1 October, Monday

    Time Temperature Precipitation Wind Pressure Humidity
    00:00 +21°C° 0 mm 1 mps 709 mmHg 75%
    01:00 +21°C° 0 mm 1 mps 709 mmHg 76%
    02:00 +21°C° 0 mm 1 mps 709 mmHg 77%
    03:00 +20°C° 0 mm 1 mps 709 mmHg 78%
    04:00 +20°C° 0 mm 1 mps 709 mmHg 78%
    05:00 +20°C° 0 mm 1 mps 709 mmHg 79%
    06:00 +20°C° 0 mm 1 mps 709 mmHg 76%
    07:00 +21°C° 0 mm 1 mps 709 mmHg 73%
    08:00 +21°C° 0 mm 1 mps 709 mmHg 70%
    09:00 +22°C° 0 mm 1 mps 709 mmHg 66%
    10:00 +23°C° 0 mm 1 mps 710 mmHg 63%
    11:00 +23°C° 0 mm 2 mps 710 mmHg 59%
    12:00 +24°C° 0 mm 2 mps 709 mmHg 59%
    13:00 +24°C° 0 mm 3 mps 709 mmHg 58%
    14:00 +24°C° 0 mm 3 mps 709 mmHg 57%
    15:00 +24°C° 0 mm 3 mps 709 mmHg 59%
    16:00 +24°C° 0 mm 3 mps 709 mmHg 61%
    17:00 +23°C° 0 mm 2 mps 709 mmHg 63%
    18:00 +23°C° 0 mm 2 mps 709 mmHg 64%
    19:00 +21°C° 0 mm 2 mps 709 mmHg 66%
    20:00 +21°C° 0 mm 2 mps 709 mmHg 68%
    21:00 +21°C° 0 mm 2 mps 709 mmHg 69%
    22:00 +21°C° 0 mm 2 mps 709 mmHg 69%
    23:00 +20°C° 0 mm 2 mps 709 mmHg 69%
    Show more